Regional Weather Roundup
Issued by NWS Northern Indiana

Home | Current Version | Previous Version | Graphics & Text | Print | Product List | Glossary On
Versions: 1 2 3 4 5 6 7 8 9 10 11 12 13 14 15 16 17 18 19 20 21 22 23 24 25 26 27 28 29 30 31 32 33 34 35 36 37 38 39 40 41 42 43 44 45 46 47 48 49 50
499
ASUS43 KIWX 301610
RWRIWX

KIWX WEATHER ROUNDUP
NATIONAL WEATHER SERVICE NORTHERN INDIANA
1200 PM EDT TUE AUG 30 2016

NOTE: "FAIR" INDICATES FEW OR NO CLOUDS BELOW 12,000 FEET WITH NO
SIGNIFICANT WEATHER AND/OR OBSTRUCTIONS TO VISIBILITY.

* THESE STATIONS ARE NOT UNDER NWS QUALITY CONTROL. THEY ALSO MAY NOT
  REPORT WEATHER SUCH AS PRECIPITATION OR FOG.

INZ001>027-301700-
NORTHERN INDIANA

CITY           SKY/WX    TMP DP  RH WIND       PRES   REMARKS
GARY*          CLOUDY    77  75  94 VRB5      30.15R FOG
VALPARAISO     CLOUDY    75  71  87 E6        30.16R
MICHIGAN CITY* CLOUDY    73  73 100 CALM      30.15R
LAPORTE*       MOSUNNY  N/A N/A N/A E8        30.16S
KNOX*          CLOUDY    73  54  49 SE5       30.14F
SOUTH BEND     LGT RAIN  71  69  93 CALM      30.16F
ELKHART*       CLOUDY   N/A N/A N/A SW9       30.16F
GOSHEN         CLOUDY    76  68  76 NW10      30.17R
MONTICELLO*    CLOUDY    80  68  67 W3        30.14F
LOGANSPORT*    CLOUDY    79  72  78 W5        30.16S
ROCHESTER*     CLOUDY    82  73  74 CALM      30.15S
WARSAW*        CLOUDY    79  72  78 SW3       30.16S
ANGOLA*        SUNNY     77  70  78 CALM      30.16F
FORT WAYNE     CLOUDY    82  68  62 S6        30.16F
HUNTINGTON*    CLOUDY    80  71  74 S3        30.16S
PERU/GRISSOM   PTSUNNY   82  72  71 SW5       30.14F
MARION*        PTSUNNY   82  70  68 S5        30.16F

$$
INZ028>050-301700-
CENTRAL INDIANA

CITY           SKY/WX    TMP DP  RH WIND       PRES   REMARKS
LAFAYETTE      MOSUNNY   80  74  81 VRB5      30.15S
KOKOMO*        PTSUNNY   84  73  70 S5        30.15S
MUNCIE*        PTSUNNY   83  70  64 W5        30.16F
INDIANAPOLIS   MOSUNNY   84  69  60 CALM      30.15S

$$
MIZ043>046-050>051-056>058-064>065-071>073-077>080-301700-
SOUTHWEST LOWER MICHIGAN

CITY           SKY/WX    TMP DP  RH WIND       PRES   REMARKS
BATTLE CREEK   CLOUDY    72  70  93 W7        30.17S
BENTON HARBOR  CLOUDY    72  69  90 S7        30.13F
COLDWATER*     LGT RAIN  72  66  82 N3        30.17S
HILLSDALE*     PTSUNNY   76  60  57 CALM      30.18R
HOLLAND        PTSUNNY   78  69  73 SW7       30.15S
GRAND RAPIDS   PTSUNNY   77  67  71 SW10      30.15R
KALAMAZOO      LGT RAIN  72  68  87 SW3       30.16S
STURGIS*       CLOUDY    78  68  71 CALM      30.16S
THREE RIVERS*  RAIN      72  71  97 CALM      30.17S

$$
OHZ001>008-015>018-024>025-301700-
NORTHWEST OHIO

CITY           SKY/WX    TMP DP  RH WIND       PRES   REMARKS
WAUSEON*       FAIR      77  63  61 CALM      30.17R
DEFIANCE       MOSUNNY   82  65  56 NW6       30.16S
FINDLAY        SUNNY     82  62  50 CALM      30.16S
TOLEDO EXPRESS MOSUNNY   78  62  57 S3        30.16S
TOLEDO METCALF SUNNY     79  62  56 S5        30.16F
LIMA           MOSUNNY   80  68  66 VRB5      30.17S

$$
AND FOR LAKE MICHIGAN COASTAL AND OPEN LAKE BUOY OBSERVATIONS

STATION/POSITION TEMP    WIND        PRES    VSBY  WAVE
                 AIR SEA DIR/SP/G                  HT/PER
                 (F)     (DEG/KT/KT) (MB)    (MI)  (FT/S)
CALUMET HARBOR    74      30/  5/  6 1020.0R
MICHIGAN CITY     71      70/ 10/ 12   N/A
BURNS HARBOR      73      60/ 12/ 15 1020.7F
SAINT JOSEPH      73     200/  2/  5 1021.3S
SOUTH LAKE BUOY   74 75  180/ 10/ 12 1019.5S         2/ 3
4 MI NW BRIDGMAN  68 69  100/  4/  4 1020.5F         0
MICHIGAN CITY     71 69  150/  6/  8   N/A           1/ 2

$$
&&




USA.gov is the U.S. government's official web portal to all federal, state and local government web resources and services.